Location: Branche des Alpilles
(43.6087°N, 4.6976°E)
Time: 14:53:23
(UTC+00:00)

CSL-04 Rocket - Visible Passes

Search period start: 20 April 2021 00:00
Search period end: 30 April 2021 00:00
Orbit: 805 x 861 km, 98.9° (Epoch: 19 April)

Date Brightness Start Highest point End Pass type
(mag) Time Alt. Az. Time Alt. Az. Time Alt. Az.
20 Apr 5.6 19:53:38 10° SSW 19:58:06 28° W 20:02:35 10° NW visible
21 Apr 5.0 19:36:07 10° SSW 19:41:01 39° W 19:45:57 10° NNW visible
22 Apr 4.4 19:18:49 10° S 19:23:58 55° W 19:29:10 10° NNW visible
23 Apr 3.8 19:01:42 10° S 19:06:59 78° WSW 19:12:18 10° NNW visible
24 Apr 6.3 20:28:12 10° WSW 20:30:56 14° W 20:33:41 10° WNW visible
25 Apr 6.0 20:09:55 10° SW 20:13:46 20° W 20:17:39 10° NW visible
26 Apr 5.5 19:52:08 10° SSW 19:56:39 29° W 20:01:12 10° NW visible
27 Apr 4.9 19:34:39 10° SSW 19:39:35 40° W 19:44:33 10° NNW visible
28 Apr 4.3 19:17:22 10° S 19:22:32 57° WSW 19:27:46 10° NNW visible
